Theta_e
300 300 300 300 298 298 298 298 298 297 298 298 296 297 301 300 292 290 299 302 298 298 298 299 299 299 299 299 300 301 302 303 303 302 302 303 304 305 305 306 306 307 307 308 309 310 310 311 310 311 312 313 314 314 314 314 315 315 316 316 316 316 317 316 316 316 317 318 318 318 317 317 316 316 317 317 318 318 319 322 326 330 331 330 330 330 333
299 300 300 300 297 297 297 297 298 298 299 298 298 299 300 300 298 303 302 302 300 299 298 298 299 301 300 299 300 301 301 301 301 302 301 302 303 304 305 305 306 306 306 307 308 308 309 309 309 309 310 311 311 312 312 313 314 315 316 315 315 315 315 315 316 316 316 316 316 316 316 315 315 316 316 315 315 315 315 317 318 322 326 329 330 329 330
297 301 302 302 302 299 297 297 298 299 300 298 301 305 305 305 303 304 301 297 293 297 300 298 299 299 299 298 298 299 300 300 300 300 301 302 303 304 304 304 304 304 305 305 305 306 306 307 308 308 309 309 310 310 311 312 312 314 315 314 314 314 314 315 315 315 315 315 315 315 314 314 314 314 314 314 313 313 313 314 315 317 319 320 323 328 329
295 300 301 300 300 299 297 297 299 300 303 301 302 300 305 303 299 299 297 292 288 293 296 297 297 297 296 295 296 297 297 299 299 299 300 301 301 302 302 302 303 302 302 303 303 305 306 307 307 307 307 308 308 308 310 310 312 313 313 313 313 313 314 314 314 314 314 314 314 313 313 312 312 312 312 312 311 311 311 311 311 312 313 314 316 318 321
292 300 302 299 299 297 293 293 297 300 303 304 305 306 307 306 304 296 294 295 294 294 296 294 295 295 295 295 295 295 297 298 298 299 299 300 300 301 301 301 302 302 301 302 304 305 305 305 306 307 308 307 307 308 309 310 312 312 312 312 312 312 313 313 313 313 313 313 312 312 312 312 311 311 311 310 309 309 309 310 309 308 308 309 310 313 316
293 299 300 300 292 284 286 297 300 302 302 303 300 298 299 300 303 299 300 296 296 296 295 294 293 293 294 295 296 298 296 296 297 298 299 300 300 300 301 301 302 302 302 303 304 305 305 306 307 308 308 307 308 309 309 310 310 311 310 311 312 311 312 312 313 313 313 312 311 311 311 311 310 309 309 309 309 309 309 309 308 306 306 305 306 307 309
292 297 297 288 284 285 294 299 301 303 304 302 299 299 300 300 299 298 296 295 295 296 296 294 293 293 294 295 295 296 297 297 297 296 298 299 299 300 301 301 301 302 303 304 304 305 305 306 308 307 307 307 308 308 308 308 309 309 310 310 310 310 311 311 311 312 311 311 310 310 310 310 310 309 308 308 308 307 307 306 305 304 304 303 303 303 304
295 293 292 284 284 291 296 299 301 303 302 301 298 295 297 299 298 298 295 295 295 293 292 292 293 292 293 293 294 295 296 297 296 296 296 298 299 299 300 300 301 303 303 303 303 304 307 309 309 308 307 307 307 306 308 307 307 308 310 309 309 309 309 309 310 310 310 310 309 310 310 310 309 308 308 307 306 306 306 305 305 304 304 303 302 301 302
288 290 289 287 292 292 294 295 296 299 296 298 297 288 291 298 298 297 293 293 292 292 291 292 292 293 292 290 291 295 296 296 297 297 297 299 300 302 302 302 303 306 306 307 308 309 307 307 307 307 307 309 309 308 307 306 306 307 308 308 308 308 308 309 309 309 310 309 309 309 309 308 308 308 307 306 306 306 305 304 303 303 302 302 302 301 301
293 291 286 286 286 285 289 296 301 306 305 305 302 296 290 297 298 297 294 292 292 291 291 291 292 294 292 287 288 293 295 296 296 297 298 299 300 301 302 303 304 304 305 306 306 306 306 306 306 306 307 307 307 307 307 307 306 306 306 307 307 307 307 307 307 308 308 308 307 308 308 307 307 307 307 307 306 306 304 303 302 302 303 302 302 301 300
292 289 287 286 284 287 295 298 301 304 305 306 305 298 289 296 298 297 296 293 293 292 292 292 294 294 289 285 288 293 295 296 297 297 298 299 300 300 302 302 302 303 304 304 304 305 305 304 305 306 306 306 305 305 305 305 305 305 305 306 306 306 306 307 307 307 308 307 307 307 307 307 307 306 306 306 307 307 305 304 302 302 302 301 301 300 300
291 289 288 286 288 287 296 301 302 304 306 305 303 289 289 295 298 298 297 295 294 294 294 294 294 294 287 287 290 295 296 297 298 297 297 298 299 300 302 303 304 304 304 304 303 303 303 304 305 305 305 305 304 304 304 305 304 304 304 305 306 307 307 307 307 307 307 307 307 307 306 306 307 307 307 307 307 307 306 304 303 302 301 301 300 299 300
291 288 288 289 289 296 301 301 303 304 306 303 291 287 293 298 298 298 297 297 297 296 295 297 295 296 296 294 295 296 297 296 297 298 299 299 300 300 301 301 301 302 302 302 302 303 303 304 304 305 304 304 303 303 303 303 303 304 305 305 306 306 306 306 306 306 306 306 306 306 307 307 307 307 306 306 306 306 306 305 303 302 301 301 300 300 299
290 292 289 288 290 296 302 303 303 305 300 290 290 297 302 300 298 299 300 298 298 298 298 296 294 294 295 295 295 296 296 297 297 297 299 300 300 301 301 300 301 302 302 303 303 303 303 304 304 304 304 303 302 303 303 302 303 305 305 305 305 305 305 305 305 306 306 307 306 306 306 307 306 305 306 306 305 305 305 304 303 302 302 301 300 299 300
293 291 287 286 284 292 302 302 301 302 293 294 299 300 301 301 299 299 299 299 298 297 294 295 295 295 295 295 295 296 297 297 297 298 298 298 298 299 300 301 301 302 302 302 302 303 303 304 304 304 303 302 302 302 302 302 304 305 305 305 304 304 304 304 305 305 305 305 305 305 304 304 302 302 302 304 304 304 304 303 303 301 301 300 300 299 299
290 291 286 287 294 299 303 302 293 300 302 303 303 301 298 299 299 298 297 297 298 298 297 295 296 296 295 295 296 296 296 297 297 297 298 298 299 299 300 301 301 301 301 301 301 302 303 303 304 304 303 301 301 301 302 303 304 304 304 304 304 303 303 303 304 304 303 304 304 304 304 304 303 302 302 302 302 302 303 302 301 301 300 300 299 298 297
293 290 291 296 300 301 303 303 302 303 304 304 304 302 300 298 297 299 296 296 297 297 296 296 295 294 295 295 296 296 296 296 296 296 297 298 298 299 300 300 301 301 301 301 301 301 302 303 303 303 303 302 301 301 303 303 303 304 304 303 303 303 303 303 303 302 303 303 303 303 304 303 302 302 302 302 300 301 301 301 300 300 299 299 298 298 297
296 297 298 299 300 300 301 303 304 303 303 304 303 302 299 300 299 299 297 296 296 296 296 294 294 295 295 295 296 296 296 296 296 297 298 298 299 300 300 300 301 301 301 301 301 301 301 302 302 303 303 303 301 302 303 303 303 304 303 303 302 302 302 302 302 302 302 302 302 302 302 302 302 302 301 299 298 299 300 299 299 299 298 298 298 298 297
294 287 298 296 297 300 302 302 303 304 304 302 302 302 301 300 300 299 299 297 296 296 296 296 294 295 296 296 296 296 296 296 296 297 297 298 299 300 300 301 301 301 301 300 300 300 300 302 302 302 303 303 303 303 303 303 304 303 302 302 301 302 302 302 302 302 302 301 302 302 302 301 301 301 301 300 298 297 297 297 298 298 298 297 297 297 297
292 290 296 297 300 300 302 301 300 300 301 302 303 302 302 301 300 299 298 298 297 297 296 296 295 295 296 296 295 295 295 296 296 297 298 298 299 300 301 301 301 301 300 299 299 299 300 301 302 302 302 302 302 303 303 303 303 303 302 301 301 301 302 302 301 301 301 295 298 301 300 300 300 300 300 300 297 296 296 296 295 296 297 296 296 297 296
292 295 297 298 299 299 299 301 302 302 301 301 301 301 300 300 298 298 298 299 298 298 297 297 296 295 296 297 297 297 297 297 298 298 298 299 299 300 300 301 301 300 300 300 300 300 300 301 302 301 301 302 302 302 302 303 303 302 301 300 301 301 302 302 301 301 301 301 301 301 300 299 299 298 299 300 299 297 297 297 296 296 295 294 295 297 297
288 289 292 297 290 289 296 299 301 301 302 301 300 300 299 299 299 299 298 298 299 299 298 297 297 296 296 297 298 297 298 298 298 298 299 299 299 300 300 300 300 300 300 301 300 300 300 301 301 301 301 301 302 302 302 302 302 302 301 301 301 301 300 301 301 301 301 301 302 301 301 300 298 297 289 289 294 298 296 290 288 289 290 293 294 296 296
291 297 298 301 299 297 297 298 300 301 301 301 299 299 298 299 299 299 299 297 297 297 298 299 298 297 297 298 298 297 297 298 299 299 299 299 299 299 300 300 299 299 299 300 300 300 300 300 300 300 301 301 302 302 302 302 302 301 301 300 299 300 300 300 298 300 300 300 301 301 301 301 300 298 297 295 289 288 289 290 289 288 288 288 288 288 292
301 300 300 300 299 296 297 299 300 300 301 300 299 299 300 299 299 299 299 299 297 297 298 299 299 299 298 298 298 297 298 298 299 299 300 300 300 299 299 299 299 299 299 299 299 299 301 301 301 301 301 301 302 302 302 302 302 302 301 299 299 299 299 300 299 300 300 300 301 300 300 300 299 299 299 297 294 290 289 289 289 289 289 288 289 289 288
298 301 301 301 299 299 299 300 300 301 302 301 299 299 299 299 300 300 299 298 299 298 298 298 299 299 298 298 299 298 298 298 299 298 298 298 297 299 299 300 299 300 300 300 301 301 301 301 301 301 300 301 302 301 302 302 302 301 301 300 299 299 300 300 299 299 299 300 297 300 299 299 299 300 298 298 296 296 293 289 288 289 289 289 289 289 289
302 300 300 300 300 299 299 299 299 299 300 300 300 300 300 300 300 300 299 299 298 299 298 298 298 299 300 299 299 299 298 298 297 297 298 298 298 299 299 299 299 300 300 300 300 301 301 301 300 300 299 300 301 302 302 302 302 301 301 301 300 300 300 299 300 300 300 300 299 300 300 299 299 299 298 298 298 297 296 295 295 292 289 289 289 289 289
300 300 299 297 296 297 299 297 295 298 299 300 300 300 300 300 299 300 300 299 299 299 299 299 299 299 299 299 299 299 298 298 298 298 299 299 298 298 299 300 299 299 298 298 298 297 297 298 298 299 299 299 301 301 302 302 302 301 301 301 301 295 290 296 300 300 300 299 299 299 299 299 298 298 298 297 298 297 296 295 295 295 296 297 293 291 295
300 301 301 296 294 295 296 299 300 299 299 298 299 299 299 299 299 298 298 298 298 299 299 300 299 299 298 299 299 297 298 298 298 298 298 298 298 299 299 299 299 299 298 298 298 298 299 299 299 299 299 301 301 301 301 301 301 301 301 301 300 300 300 299 300 300 300 300 299 299 299 299 299 298 297 297 297 297 296 295 295 295 295 296 297 292 288
300 301 302 301 299 299 300 300 299 298 298 299 299 299 299 298 298 297 297 298 298 298 298 299 300 300 298 298 298 298 298 298 298 297 297 297 298 299 299 300 300 299 299 298 299 299 299 299 299 298 299 301 302 302 301 301 301 301 301 300 300 300 300 300 301 300 300 300 300 299 295 296 297 298 298 297 296 297 296 296 296 296 296 296 296 297 294
299 300 300 300 300 299 298 296 296 297 297 298 298 298 299 298 297 297 297 298 298 297 297 298 298 298 298 298 298 299 297 297 297 296 296 297 298 299 299 299 299 298 299 299 299 299 299 299 298 298 298 300 301 302 302 301 301 301 302 302 301 299 299 300 300 301 300 300 298 294 296 298 298 298 297 298 298 296 295 295 295 295 296 295 293 294 293
299 299 299 299 299 298 297 296 297 297 297 298 299 298 298 298 297 296 297 297 298 297 298 298 298 298 298 298 298 297 296 296 296 296 297 298 299 300 300 299 297 296 297 298 299 299 299 299 299 299 300 301 301 302 302 302 301 301 301 301 300 292 290 290 293 299 299 298 297 298 298 298 298 297 295 296 296 296 296 297 295 295 294 295 295 295 294
296 296 296 296 296 296 296 297 297 297 297 298 297 296 297 297 296 296 297 296 298 298 298 298 298 297 297 297 296 296 296 296 297 297 298 299 299 298 295 296 298 296 299 299 299 299 299 299 299 300 301 301 301 302 303 302 301 301 301 296 300 300 297 292 296 297 300 296 298 297 296 298 297 297 298 296 296 296 296 296 295 295 295 295 295 296 295
295 293 293 294 295 296 296 296 296 296 296 297 297 298 298 298 298 298 298 298 297 297 297 297 298 298 297 296 296 296 293 295 297 296 296 294 292 290 291 300 300 300 299 300 300 300 300 299 300 301 301 301 301 302 302 302 302 301 300 300 300 300 296 295 294 298 297 299 298 297 299 297 298 297 297 296 297 295 297 296 295 295 295 296 296 297 296
296 295 295 297 297 295 295 295 296 296 297 297 298 297 297 297 297 297 297 297 297 297 297 297 297 297 297 296 292 291 292 292 293 291 288 288 288 290 296 299 300 300 300 301 301 300 300 300 301 301 301 301 301 302 302 302 302 301 301 301 300 299 299 298 298 298 297 296 298 298 298 298 298 297 298 296 297 296 296 296 295 294 295 295 296 296 292
300 300 300 300 299 299 298 297 297 297 296 296 296 297 297 297 297 297 297 297 297 297 298 298 297 296 294 292 291 290 289 290 289 288 287 288 289 289 298 300 299 300 299 300 300 300 301 300 301 301 301 301 301 300 301 303 303 301 302 301 299 299 299 298 298 298 298 298 298 299 298 298 298 294 296 297 297 296 296 295 295 294 295 295 296 296 296
300 299 299 299 299 299 299 298 298 298 297 297 297 297 297 297 297 297 297 298 298 298 297 297 296 295 293 290 289 288 288 288 288 288 288 287 288 292 297 300 299 299 299 299 300 301 301 299 291 287 301 301 300 299 299 300 303 302 301 301 299 298 298 297 297 298 298 300 297 298 298 295 296 296 296 297 298 297 297 297 296 295 296 295 295 295 296
300 299 298 298 298 299 299 298 298 298 298 297 297 297 298 298 297 298 299 299 298 298 298 297 295 293 293 293 291 290 289 290 290 290 290 290 292 296 299 299 299 299 298 298 299 302 301 299 292 286 294 300 300 300 299 289 301 302 301 300 299 297 297 297 297 297 297 297 296 298 295 295 297 298 295 298 297 297 296 297 295 297 297 296 295 295 294
299 299 299 298 298 299 299 299 299 300 299 299 299 299 298 298 298 299 299 299 298 298 297 296 295 295 295 295 293 290 290 290 289 289 289 290 296 298 298 295 297 297 297 299 301 302 301 296 287 293 301 301 301 299 296 289 288 299 300 298 298 297 296 296 296 297 296 298 297 298 298 297 296 297 298 298 298 297 297 296 296 297 297 297 296 295 294
298 299 299 299 299 299 299 299 300 300 300 299 299 298 299 300 300 299 298 298 298 297 297 296 296 295 295 294 293 294 294 294 293 290 291 294 296 296 296 299 300 301 301 302 303 302 298 296 299 301 301 301 301 301 297 294 290 300 300 300 300 298 297 296 296 295 295 297 296 295 297 296 296 296 295 296 298 296 294 296 296 295 297 297 298 297 296
298 298 298 298 298 299 298 298 299 299 300 300 299 299 299 299 299 298 298 297 297 297 298 297 296 295 295 295 295 295 295 296 296 296 295 296 296 297 298 299 301 302 301 294 300 302 297 292 297 302 302 301 301 300 298 294 293 300 300 299 299 298 297 296 297 296 296 297 296 293 295 295 296 294 294 294 295 295 297 297 297 297 298 298 298 298 298
298 298 298 299 298 299 298 298 298 299 300 300 300 300 300 300 299 299 298 297 297 298 298 298 297 296 296 296 297 297 298 297 298 297 298 298 297 297 295 297 301 303 302 302 303 300 295 295 298 301 301 301 301 295 299 295 297 301 300 299 298 298 297 297 296 297 296 296 296 296 295 295 295 296 294 296 295 295 296 295 296 296 297 298 297 298 298
298 299 299 299 298 299 299 299 299 299 300 301 300 301 301 301 300 299 299 299 298 299 299 299 294 298 298 298 299 299 299 299 299 300 299 299 297 298 295 299 303 303 297 296 296 297 298 298 298 295 302 301 298 290 289 298 300 300 299 299 298 297 297 296 297 297 297 297 297 298 297 296 296 295 295 296 295 295 295 295 297 296 297 297 297 297 298
299 298 299 299 299 300 300 299 299 299 300 300 301 301 301 301 301 301 300 299 299 299 299 299 298 297 298 299 300 299 299 300 299 300 300 301 301 302 301 302 304 301 289 297 301 301 299 300 300 301 294 297 297 286 286 297 300 300 299 299 297 297 298 297 297 296 297 297 296 297 297 295 296 296 295 295 294 295 295 295 295 295 296 297 297 296 297
299 299 299 299 298 299 299 299 300 300 299 299 301 301 302 302 301 300 300 299 299 299 299 299 299 299 299 300 300 299 298 299 299 299 299 299 299 302 303 302 303 296 289 298 299 300 300 300 301 295 286 287 285 286 297 299 300 300 301 298 298 298 298 297 296 297 296 296 296 297 296 294 296 296 296 295 294 295 295 294 295 296 296 296 297 297 297
299 299 299 299 299 299 298 299 300 300 301 302 302 301 302 301 302 301 301 300 299 299 299 300 299 299 300 300 300 300 300 300 300 300 298 297 297 299 301 297 300 298 296 294 299 300 301 301 294 289 291 288 287 287 297 299 300 299 299 298 299 298 298 296 297 296 296 297 296 296 296 295 297 296 296 294 293 294 294 294 295 296 295 295 295 295 296
299 299 300 294 299 299 300 300 301 301 301 300 301 300 301 301 302 302 302 301 300 300 300 301 300 300 300 301 300 301 302 302 301 302 302 301 299 301 302 298 300 297 293 291 299 300 300 287 286 288 287 287 288 295 298 298 298 299 300 299 299 299 297 297 297 297 297 296 297 296 295 296 296 296 296 296 296 295 294 292 293 295 295 295 296 296 296
299 299 300 300 300 301 302 301 301 301 300 300 299 299 300 301 301 301 302 302 301 301 301 301 301 301 302 302 301 300 299 300 301 302 302 302 301 299 296 293 291 289 292 299 299 300 298 294 290 286 287 287 286 298 299 300 299 300 299 299 298 298 298 298 297 298 297 297 296 294 292 295 296 297 297 294 295 296 295 294 294 294 295 294 295 293 293
299 299 300 300 300 301 301 301 300 299 299 298 299 299 300 301 301 301 302 302 301 301 301 302 301 302 302 302 302 302 302 301 297 299 302 302 302 302 300 303 301 293 293 293 292 291 288 289 286 286 286 286 292 298 299 300 299 299 299 299 299 299 298 298 298 297 297 296 297 297 297 297 296 296 295 295 296 295 295 294 294 293 294 293 294 295 294
300 300 300 300 301 300 299 299 299 297 299 300 299 300 300 300 301 301 301 301 301 301 301 301 301 302 302 301 301 302 302 302 301 299 302 302 301 302 302 295 289 289 294 299 300 300 289 287 286 287 285 286 297 299 299 300 298 297 297 298 297 298 298 298 298 297 297 297 296 296 296 295 296 296 296 295 294 295 294 294 294 294 292 292 294 293 294
300 300 300 300 300 299 299 298 298 298 300 300 300 300 301 300 299 299 299 300 300 298 301 301 301 301 302 302 302 302 303 302 301 302 302 302 303 303 300 299 298 292 293 298 300 299 288 285 286 286 290 296 298 298 300 300 300 298 299 299 297 297 295 294 292 291 295 293 295 296 295 294 295 294 293 293 293 294 294 294 294 292 288 291 293 293 294
300 299 299 299 300 301 301 301 300 300 300 301 301 300 299 298 298 298 300 300 300 300 299 299 300 301 301 301 301 301 301 301 300 298 301 302 302 298 297 299 298 294 295 297 298 299 298 298 298 294 294 297 298 299 299 300 298 298 295 296 296 296 295 294 294 295 296 296 296 296 295 295 295 296 295 294 294 293 294 293 292 293 293 294 294 294 294
301 301 301 301 301 301 301 301 301 301 301 300 300 299 299 299 299 298 299 293 299 299 299 299 298 300 301 301 300 301 301 301 300 301 298 299 300 301 299 296 300 297 299 299 299 301 300 298 295 292 293 298 298 299 294 292 296 297 296 294 294 295 294 294 294 295 295 295 294 294 294 295 295 295 294 296 294 294 293 292 293 293 294 294 294 293 294
Wind_Speed
4 3 8 14 18 18 16 13 14 17 14 12 10 11 3 5 6 3 14 18 22 17 15 14 13 14 14 14 13 13 13 13 12 12 11 10 10 9 9 9 8 9 9 9 9 9 9 9 10 9 9 9 10 10 10 11 10 11 11 12 11 11 12 13 13 12 11 11 12 13 13 13 12 13 12 12 13 12 12 13 13 12 11 11 10 11 10
4 4 9 11 16 16 15 15 15 12 12 10 10 4 3 1 7 16 13 15 18 15 15 14 12 12 14 14 12 12 13 13 13 12 11 10 10 10 9 9 8 8 8 8 8 9 10 10 11 10 10 10 10 10 10 11 11 10 10 10 12 12 12 12 13 14 13 13 13 13 13 13 13 13 13 12 12 12 13 13 12 13 15 13 11 9 11
7 5 7 5 8 9 11 9 8 3 9 12 7 10 14 19 13 17 22 21 15 9 14 16 13 12 12 13 13 13 13 13 12 11 11 10 10 10 9 8 8 8 8 9 9 9 10 10 11 10 10 10 10 10 10 10 11 11 11 11 10 11 12 12 12 13 13 13 13 14 14 13 13 14 14 12 12 13 13 13 13 13 13 14 15 13 9
7 7 10 12 11 12 13 11 7 5 10 11 10 5 3 9 14 17 17 14 10 11 14 15 14 13 14 14 13 12 11 12 11 11 11 10 10 9 8 8 8 8 9 9 9 9 9 10 10 10 10 10 10 11 10 11 10 10 10 11 12 12 12 12 13 13 13 14 14 14 15 15 14 14 13 13 13 13 13 14 14 13 13 13 13 12 11
7 11 12 16 18 14 11 7 6 6 7 10 12 13 11 11 15 12 6 6 12 16 15 16 14 14 14 13 12 12 12 11 11 11 11 10 9 9 8 8 9 9 9 8 9 9 9 9 9 10 10 10 10 10 10 10 10 10 11 10 11 12 12 13 13 13 13 14 14 14 15 15 14 13 14 14 14 14 14 13 13 13 13 14 13 13 12
8 14 12 12 13 14 7 4 1 6 5 8 13 12 12 14 6 7 10 17 17 17 15 17 16 14 12 12 11 10 10 11 11 10 10 10 9 9 8 9 9 9 8 8 8 9 9 9 9 8 9 9 9 9 10 10 11 11 10 11 12 12 12 13 13 13 13 13 14 14 14 14 14 15 14 14 14 13 12 13 13 13 13 14 14 14 14
7 10 13 9 9 3 4 4 1 3 9 13 16 14 12 11 14 19 20 19 18 16 15 16 16 15 14 13 13 11 10 10 10 10 10 9 8 8 9 10 9 9 8 9 8 9 9 8 8 9 9 9 9 10 10 10 11 11 11 12 12 12 12 13 13 13 13 13 13 14 14 14 14 14 14 14 14 12 11 12 13 13 13 13 13 13 14
3 6 7 8 3 2 1 3 6 9 10 13 17 16 13 11 11 15 18 18 17 17 17 16 15 17 17 15 12 10 10 9 10 10 9 9 8 8 8 9 8 7 9 9 8 6 3 7 9 9 9 9 10 11 10 11 11 11 11 12 13 13 13 13 13 13 13 12 13 13 14 14 14 14 14 14 13 12 12 12 11 11 12 12 13 14 14
7 4 4 5 7 6 5 8 7 10 8 10 4 6 6 7 9 13 17 18 17 17 16 17 16 16 14 14 10 8 9 9 9 10 10 10 9 9 9 9 8 7 6 4 5 8 10 9 8 10 9 9 8 8 9 10 12 11 11 12 13 14 13 13 13 13 12 12 13 14 14 14 14 14 14 14 13 12 12 11 12 13 12 12 12 14 15
4 6 7 5 4 4 7 7 9 3 5 6 11 12 6 5 9 12 16 17 17 17 16 16 16 13 11 10 7 7 8 9 10 9 9 9 9 8 8 8 7 7 7 7 8 7 8 9 9 8 9 9 10 10 10 9 10 10 12 12 13 13 12 12 13 13 13 13 13 13 13 13 14 13 13 12 12 11 11 11 11 12 11 11 12 12 13
7 5 4 4 5 2 2 10 10 5 5 3 7 5 6 6 10 13 15 17 16 16 16 17 14 9 7 7 7 8 9 9 9 10 9 9 9 8 8 8 7 7 7 7 7 8 8 8 9 9 9 10 10 10 10 11 10 11 11 12 12 12 11 11 13 13 13 13 12 12 13 13 13 13 13 12 12 11 10 10 10 10 10 11 11 11 12
7 6 7 4 4 1 4 9 9 8 4 5 5 5 6 11 13 13 16 17 16 15 15 11 7 8 9 11 10 11 11 10 10 10 10 9 9 9 8 7 7 7 7 8 8 8 9 9 9 9 9 9 10 10 10 10 11 11 11 12 11 10 11 11 12 13 12 13 12 12 12 12 11 11 11 11 13 12 11 11 11 10 10 11 12 12 12
8 11 4 6 3 4 7 8 8 7 5 4 5 2 9 15 15 14 14 16 15 15 12 8 5 4 9 14 16 14 12 11 11 10 9 9 9 9 8 7 7 7 8 8 9 9 8 8 9 9 8 9 9 10 10 10 12 11 10 10 10 10 10 10 11 13 13 12 12 12 12 11 10 10 11 11 11 12 11 11 11 10 11 11 12 12 12
9 6 7 5 6 3 5 4 5 6 4 4 3 7 13 17 17 15 15 17 16 13 9 8 10 15 20 19 16 15 13 12 11 11 10 10 10 9 8 7 7 8 8 9 9 9 9 10 9 9 9 9 9 9 10 11 11 10 11 10 10 10 10 10 10 11 12 11 11 10 11 12 13 12 12 11 11 11 10 11 12 12 12 12 11 11 11
4 5 7 6 5 3 6 8 6 2 3 5 9 14 15 15 17 17 16 15 13 11 13 15 18 19 19 18 16 15 14 13 12 11 11 10 10 9 8 8 8 8 8 9 9 9 8 8 8 9 10 10 10 9 10 10 9 10 10 10 11 10 10 10 10 10 10 12 11 10 11 12 13 13 12 12 12 12 12 12 12 13 13 12 12 12 11
3 6 5 2 5 10 9 7 2 4 7 12 14 15 16 15 15 15 13 12 12 14 16 18 18 18 19 17 16 15 14 13 12 11 10 10 9 9 9 9 9 9 9 8 9 9 8 9 8 8 9 10 9 10 11 9 9 9 9 10 10 11 11 12 11 11 12 13 13 12 12 11 11 12 13 13 12 11 12 12 12 12 11 11 11 12 13
5 6 6 8 9 9 6 8 12 12 13 13 14 14 15 15 13 13 13 14 15 16 18 18 19 17 16 17 16 15 15 13 12 11 11 10 10 9 9 9 9 8 9 9 9 8 8 8 8 8 9 9 9 10 9 9 9 9 9 9 9 10 10 11 11 11 10 12 13 13 12 13 12 13 14 14 13 13 12 12 12 12 12 12 12 11 11
15 14 11 10 10 10 10 11 11 13 14 14 14 16 14 13 13 12 14 16 17 17 17 18 16 16 17 17 16 15 13 12 12 11 11 10 9 10 10 9 9 9 9 9 9 9 9 8 8 7 7 8 10 9 9 9 9 9 9 9 10 10 10 9 10 10 11 11 12 13 14 12 12 13 14 14 13 13 13 13 12 12 12 12 12 12 12
4 6 7 11 11 11 12 13 13 13 14 13 12 13 14 14 15 16 16 17 18 17 16 17 18 18 17 17 16 15 14 13 12 12 12 11 10 10 10 9 8 8 8 8 9 8 9 7 6 7 9 9 9 9 9 8 9 9 10 9 9 9 9 9 9 9 10 9 8 10 12 11 12 12 12 11 12 13 13 13 12 12 12 11 11 12 12
3 9 10 11 12 11 12 11 12 15 15 15 14 14 15 16 16 17 18 17 17 16 17 17 18 18 16 17 16 14 13 12 12 12 12 11 11 10 9 9 8 8 8 8 7 7 8 6 7 7 8 8 9 9 8 8 8 8 9 9 9 9 10 9 9 9 9 8 9 8 9 10 11 11 11 11 11 11 11 11 12 12 11 11 11 10 10
11 12 11 11 13 13 12 13 12 12 13 14 16 17 18 19 19 18 16 14 15 16 17 18 18 18 16 16 15 15 14 13 12 12 11 10 10 9 8 8 7 7 7 8 8 8 7 6 7 8 8 8 9 9 9 9 9 8 8 9 9 10 9 8 8 8 8 8 9 8 8 8 9 8 9 9 9 9 8 7 8 9 10 10 10 9 8
8 8 12 16 11 10 10 12 13 14 15 16 17 17 18 18 19 18 19 17 16 17 17 17 16 17 16 16 15 15 14 13 13 12 11 11 10 10 9 8 8 8 8 8 8 7 7 7 7 8 8 8 9 9 9 9 9 8 8 8 8 8 8 8 8 7 8 8 9 9 8 6 6 7 9 11 11 7 6 3 6 8 9 8 8 9 8
7 12 17 8 12 14 12 13 13 15 15 16 18 18 18 18 18 18 20 21 19 17 16 15 16 16 16 16 15 14 13 13 12 12 12 11 10 10 9 9 9 9 7 6 7 8 9 8 6 7 9 8 9 9 9 9 10 10 10 8 8 8 8 8 8 7 7 8 8 8 8 9 7 5 5 7 10 9 8 3 4 7 9 10 11 12 10
13 17 13 12 14 14 15 14 14 14 15 16 18 18 18 18 19 18 18 18 19 18 17 16 15 16 16 15 15 15 14 14 13 12 11 10 10 10 9 8 8 8 8 7 7 8 7 6 6 6 8 8 8 8 9 8 9 9 10 10 9 9 8 9 8 8 8 8 8 7 8 8 8 9 6 4 4 2 2 3 2 5 7 9 11 11 11
14 13 11 13 16 17 15 15 15 15 16 16 17 18 19 19 19 19 19 17 16 18 17 16 16 14 15 15 14 14 14 13 12 12 11 10 10 9 8 8 7 7 6 5 5 5 5 5 5 5 5 7 8 8 8 8 8 8 8 10 10 9 9 8 8 9 9 9 6 8 8 8 8 7 8 9 7 2 3 2 3 1 3 8 10 9 10
15 14 16 17 18 16 15 16 15 15 16 17 18 18 19 19 19 19 18 17 16 16 17 16 16 15 15 15 13 14 13 12 12 10 10 9 8 7 7 6 6 6 5 5 5 4 5 5 5 5 5 5 5 7 8 9 7 7 8 7 7 9 8 8 8 8 9 9 10 10 8 8 8 8 8 8 8 10 7 3 2 3 2 2 6 6 8
16 17 19 19 17 16 16 17 16 17 17 17 18 19 19 18 17 17 16 16 16 16 16 16 15 14 13 13 14 13 13 12 12 11 9 8 8 7 6 6 6 6 7 6 6 4 3 4 5 5 5 5 4 4 6 6 7 7 8 7 5 8 6 4 7 7 8 9 9 8 8 9 8 7 7 7 8 8 9 9 10 11 7 4 5 6 6
14 15 13 15 17 17 17 19 20 19 18 17 18 19 19 17 17 18 18 17 16 15 14 15 15 15 14 13 13 13 12 13 11 10 8 8 7 6 6 6 6 6 5 5 5 4 5 6 6 6 6 5 5 4 4 5 7 8 9 8 9 9 8 6 6 7 7 8 8 8 9 9 9 9 8 8 8 8 8 9 10 9 8 10 7 3 2
12 12 13 15 18 19 19 19 19 19 18 17 17 17 18 18 18 18 17 16 16 16 14 15 14 14 13 12 12 12 10 11 10 9 8 7 7 7 6 5 6 5 5 5 5 5 5 6 6 6 6 5 5 5 4 3 4 6 5 6 7 7 6 8 8 6 7 7 8 7 6 8 8 8 8 7 7 7 8 9 9 8 9 10 10 9 5
13 15 16 18 20 21 22 19 18 18 18 17 17 17 17 18 17 16 16 17 16 15 14 13 12 12 12 12 11 9 10 10 9 8 8 8 8 7 6 6 7 6 6 6 6 5 6 6 6 6 5 5 5 5 4 3 4 7 6 5 6 6 5 7 8 7 7 7 7 4 6 8 8 9 9 8 7 7 8 8 8 8 9 9 9 10 12
17 17 19 20 20 20 20 19 18 18 18 17 17 18 17 16 16 16 16 15 13 13 14 13 12 13 11 10 10 10 10 10 10 9 9 8 6 4 2 5 5 5 6 6 5 5 6 6 6 6 5 5 5 5 4 3 3 3 3 8 8 9 8 9 8 5 6 6 7 8 8 7 8 8 8 8 8 8 9 8 8 7 8 8 8 9 12
19 19 19 18 18 19 18 16 17 17 17 17 17 16 16 16 17 17 15 15 14 14 13 13 13 12 11 11 11 11 11 10 10 9 8 7 6 4 5 3 8 6 6 5 5 5 5 5 6 6 5 5 5 5 4 4 5 6 8 7 4 4 4 4 6 5 6 6 6 6 6 8 7 8 8 8 8 8 8 8 8 7 9 8 8 8 8
21 19 17 18 18 18 18 17 17 17 17 17 15 15 14 14 14 13 13 13 13 12 12 12 11 11 11 12 11 11 8 9 10 9 8 7 3 3 4 1 6 5 5 5 4 4 5 5 5 5 5 6 6 5 4 3 5 4 3 5 5 5 5 1 4 5 6 5 6 5 6 6 6 7 7 7 8 8 8 6 6 6 7 8 8 7 6
18 16 16 18 17 17 19 18 15 16 16 15 14 14 14 13 14 13 13 13 13 13 11 11 12 12 10 9 6 5 3 5 7 5 4 3 1 1 3 2 5 4 4 2 2 4 4 4 3 4 5 6 6 5 5 5 4 4 4 5 4 4 5 7 2 5 5 6 6 3 4 6 8 7 7 6 6 7 7 7 8 7 6 8 7 6 2
15 16 16 16 15 15 15 15 15 15 15 15 14 13 13 13 13 13 13 13 13 11 12 12 11 11 9 6 5 3 3 5 6 6 4 3 1 2 5 3 5 5 4 3 4 4 3 4 4 3 4 5 6 6 5 5 4 4 5 4 4 6 6 3 7 8 5 6 5 6 7 6 6 7 7 7 6 6 6 6 7 7 5 6 8 8 2
15 15 14 14 15 17 16 16 14 15 14 14 13 13 13 13 14 14 13 12 11 12 12 12 12 13 11 5 4 4 6 7 6 4 3 2 1 2 6 6 7 6 4 5 4 4 3 5 4 6 7 4 5 6 6 7 7 2 3 4 4 4 4 3 4 4 4 6 5 7 6 4 3 4 6 6 7 6 7 7 6 6 5 6 7 7 7
15 15 15 15 15 16 16 14 14 14 13 13 13 13 13 14 15 13 12 11 12 12 12 11 12 13 12 8 4 3 4 5 5 4 3 2 2 5 3 1 2 3 6 6 5 4 4 6 1 5 7 1 4 5 5 8 6 6 4 4 4 4 4 4 4 5 5 5 5 5 5 5 7 6 5 5 6 7 6 6 7 6 6 6 6 6 6
16 15 16 15 15 15 14 14 13 13 13 14 12 12 13 13 13 12 12 12 12 12 12 13 13 13 12 10 8 6 4 3 4 4 3 1 5 4 3 2 4 8 4 6 6 4 5 6 6 7 5 2 3 4 4 8 9 8 2 4 4 3 4 4 4 4 5 5 5 5 5 6 6 6 6 6 6 6 7 7 6 6 6 5 4 5 5
16 15 15 14 14 14 14 14 13 13 13 14 13 13 12 12 12 12 12 12 12 12 12 12 13 13 12 12 11 10 9 8 5 3 3 6 5 5 4 6 5 4 7 4 2 4 8 7 5 7 0 3 2 4 3 3 10 7 3 2 3 3 4 4 4 4 4 4 5 6 6 5 6 7 7 7 6 5 5 5 6 7 7 6 6 4 5
14 15 16 15 14 14 14 13 13 13 12 12 12 12 12 12 11 11 12 12 12 12 11 12 12 11 12 12 11 10 11 10 9 9 8 7 6 6 6 5 2 2 6 6 2 4 8 4 5 7 1 2 0 2 4 2 7 6 2 2 2 2 3 3 3 4 4 4 3 3 5 4 5 6 6 7 6 6 6 5 5 5 6 6 7 6 5
14 15 15 14 14 13 13 13 13 13 12 12 12 11 11 11 11 11 11 12 12 11 11 11 11 11 12 11 11 10 11 10 10 10 9 8 7 7 6 7 7 7 6 3 1 6 8 6 5 6 2 2 3 4 2 4 7 2 2 1 2 3 3 3 3 3 4 3 4 4 5 6 5 5 6 6 7 7 7 7 7 6 6 6 6 7 6
15 16 15 14 13 13 12 12 12 12 11 11 11 12 12 11 10 10 10 11 11 10 10 11 10 10 11 10 10 10 10 10 10 9 9 8 8 7 4 4 8 6 11 8 5 5 6 6 5 7 3 1 4 4 4 6 5 2 1 2 3 2 2 3 3 3 2 3 4 4 4 5 6 6 5 6 7 7 7 7 7 7 7 6 5 6 6
16 16 15 14 13 13 12 12 12 12 12 11 11 11 11 11 10 10 10 10 10 10 10 10 7 6 10 10 10 9 9 9 9 8 7 7 7 8 5 2 7 8 9 5 4 5 6 5 7 4 7 6 4 6 4 6 6 2 3 1 1 2 1 2 4 4 3 4 4 5 5 4 5 6 5 5 6 7 6 7 7 7 8 8 8 7 7
16 14 13 14 13 13 12 12 11 12 11 12 12 11 11 9 9 10 10 10 10 10 10 10 10 10 10 9 9 8 8 8 7 7 7 6 7 6 6 5 6 9 10 5 5 6 6 6 3 11 10 9 6 4 5 6 4 4 3 1 3 3 1 1 2 3 3 4 3 5 5 6 5 4 4 4 4 6 6 7 6 7 6 7 7 8 7
15 14 13 13 14 13 12 11 12 12 11 11 11 11 10 10 10 10 10 10 10 10 9 9 10 9 8 8 8 8 7 7 7 7 6 6 7 8 11 5 8 8 6 5 5 6 5 4 10 10 8 7 5 3 5 7 6 2 4 4 3 3 3 3 3 3 2 3 3 4 3 4 4 4 5 4 4 5 3 7 6 7 8 7 7 7 8
15 14 13 14 14 12 11 11 11 11 11 11 10 10 10 9 9 9 9 10 10 10 10 9 10 10 9 8 8 8 7 6 8 9 7 4 1 1 8 4 6 5 9 8 6 6 4 11 11 9 8 5 4 6 6 7 4 4 4 3 4 3 4 5 2 3 3 3 3 3 4 5 4 4 3 4 4 4 4 5 6 6 6 6 7 6 6
14 13 13 13 12 12 11 11 12 11 12 12 10 9 9 10 9 8 8 9 10 10 10 10 9 10 9 9 8 7 7 7 5 3 3 3 10 8 8 7 11 11 9 6 5 5 7 6 9 7 7 6 5 6 6 8 6 4 3 4 4 4 4 4 4 4 4 4 1 3 4 5 4 4 2 2 3 3 4 4 3 5 6 6 6 6 5
14 13 13 12 12 12 12 11 12 11 12 11 11 10 10 10 10 9 9 9 9 10 10 9 9 9 10 9 9 8 7 7 5 7 7 7 6 9 8 6 6 8 8 3 7 5 10 10 10 8 7 5 5 6 7 7 5 4 4 5 4 4 5 5 4 4 4 3 3 4 5 5 3 3 3 3 3 3 3 2 2 4 5 3 3 5 6
13 13 13 13 13 14 13 12 11 10 11 10 10 10 11 10 10 9 9 9 10 9 9 10 10 9 9 9 8 7 7 8 7 5 6 7 5 6 4 11 12 10 7 6 7 5 7 8 7 8 6 5 6 7 8 7 5 2 3 5 5 4 4 4 3 3 4 4 4 4 4 3 4 3 2 3 3 2 3 3 2 2 3 3 3 4 4
13 13 13 12 12 13 12 10 10 10 10 9 9 9 9 9 9 9 9 9 9 8 9 9 9 8 8 8 8 7 6 7 9 7 2 3 6 7 6 10 9 11 9 7 9 6 9 9 7 6 5 6 7 8 8 6 4 4 4 4 4 5 3 2 3 3 6 6 6 5 5 5 4 2 3 5 2 2 2 2 2 2 5 6 3 2 2
13 13 12 11 11 10 11 11 10 9 9 10 10 10 10 10 10 9 9 9 9 9 9 9 9 9 9 9 9 9 9 10 8 6 6 8 7 6 6 8 11 9 9 7 8 6 8 8 7 7 6 7 7 8 7 6 5 4 3 5 6 6 4 3 5 6 5 4 4 4 4 4 4 4 3 2 2 2 2 2 2 2 1 1 1 2 2
13 12 11 11 10 11 11 11 11 10 10 10 10 10 11 10 9 9 9 10 9 9 9 9 10 9 9 9 9 8 8 8 7 7 7 8 7 8 4 5 8 8 8 8 8 9 7 9 10 9 9 8 8 8 5 5 5 5 7 6 5 5 5 6 4 5 4 3 5 6 5 5 5 4 3 5 3 3 3 2 2 2 2 0 0 0 0
Wind_Direction
60 178 174 185 188 198 194 190 198 203 200 225 206 193 98 13 244 171 144 144 140 147 147 140 135 137 131 132 128 125 125 124 123 124 120 116 109 106 99 92 77 68 64 58 54 44 31 21 21 23 21 27 22 23 23 18 13 13 11 6 5 5 5 2 6 4 5 4 355 3 355 353 353 348 345 342 340 340 339 337 330 315 303 302 301 291 282
104 171 178 197 203 191 183 186 195 200 203 194 207 199 201 219 101 122 141 124 122 136 136 135 127 125 125 121 120 122 125 125 125 123 121 117 112 106 97 85 77 65 56 51 40 28 21 18 18 16 16 21 20 19 16 17 10 10 13 6 10 9 8 4 2 359 2 3 1 3 359 356 355 351 350 350 347 346 347 344 341 341 335 317 294 279 282
137 152 161 149 118 142 152 141 120 182 206 192 138 87 107 106 110 107 116 116 108 105 124 121 117 118 119 118 123 125 122 124 124 122 123 120 113 107 95 83 75 64 57 47 36 27 21 19 16 14 13 18 18 17 16 15 12 6 10 10 10 6 7 10 5 2 4 3 1 4 1 360 356 356 355 353 352 351 350 349 347 348 346 347 346 328 313
144 164 160 156 135 109 107 95 93 139 143 130 124 133 92 129 131 126 119 120 128 130 124 120 120 121 121 121 122 122 120 123 125 124 121 117 107 97 92 84 77 67 58 46 35 26 23 18 16 17 13 14 17 17 16 14 12 8 12 9 11 9 9 5 9 6 5 6 7 5 3 3 1 360 359 358 359 355 354 355 353 351 355 350 347 348 345
163 151 153 136 126 115 101 104 79 37 72 100 94 75 69 106 131 138 171 125 140 141 136 127 128 125 122 120 121 119 121 120 121 120 119 115 106 90 82 76 71 63 54 46 36 28 27 22 19 18 15 14 18 16 15 16 12 12 14 4 13 13 11 10 8 8 7 10 10 9 7 5 5 4 2 4 2 359 357 358 355 357 358 350 351 347 348
148 160 154 162 174 181 144 73 75 289 116 106 94 79 61 40 47 59 78 120 133 136 136 128 128 122 118 114 107 108 118 120 118 116 116 113 99 87 79 73 68 61 55 48 41 35 34 32 26 23 20 18 18 19 17 20 17 19 10 9 22 14 14 10 9 9 9 10 12 12 10 8 8 7 7 5 4 2 359 1 0 1 359 358 355 354 351
154 152 161 182 198 136 75 193 4 9 95 87 89 83 72 88 96 102 107 120 129 131 124 118 112 108 104 99 102 105 108 112 113 114 113 108 99 85 84 76 69 60 54 51 47 38 31 28 30 26 23 19 21 22 21 23 23 19 9 20 20 18 16 13 10 9 8 10 10 13 13 13 11 11 10 4 6 5 4 3 6 2 2 1 360 355 354
144 165 181 176 137 58 176 120 119 102 116 108 87 72 67 82 99 114 119 124 122 118 113 111 113 110 103 93 86 94 103 107 113 115 110 106 93 82 82 77 67 72 60 48 43 47 19 11 24 30 26 20 22 20 21 24 23 14 8 23 20 20 17 16 10 8 12 12 11 12 15 15 17 15 11 10 8 7 7 10 10 5 7 8 3 3 360
170 155 103 77 119 123 139 145 146 159 149 183 171 115 70 80 105 118 120 121 121 118 118 120 118 116 106 92 81 85 100 105 106 108 110 113 104 98 90 81 78 71 76 80 36 38 34 28 26 22 16 6 23 28 24 28 22 15 15 24 20 21 23 16 13 13 17 18 14 14 15 16 18 17 15 13 13 10 12 12 11 12 10 8 8 7 6
198 140 126 137 183 175 181 195 179 133 50 44 85 105 107 103 116 129 131 130 131 127 129 132 135 137 103 83 88 106 112 111 110 106 104 99 98 94 88 82 79 69 54 55 50 40 36 35 28 26 23 13 12 17 17 18 27 19 21 24 25 26 25 21 24 24 22 22 19 16 20 21 19 20 20 19 17 16 18 15 15 17 11 11 13 11 10
149 183 180 175 159 41 104 152 174 163 219 185 152 143 115 146 142 145 142 135 136 139 141 146 158 152 107 114 129 133 127 121 117 114 108 103 97 91 84 81 78 73 65 53 52 47 43 38 34 30 29 30 22 24 19 18 21 25 27 27 29 28 28 27 27 26 25 23 20 16 20 20 18 19 22 23 23 23 23 21 19 17 18 19 16 16 12
186 168 188 161 40 108 132 133 154 170 158 203 218 224 166 159 149 148 147 141 142 143 145 152 183 158 133 149 147 141 131 124 117 114 114 110 103 95 95 86 74 68 66 67 57 55 50 43 38 35 33 38 37 31 26 24 25 27 27 30 34 32 29 28 29 27 25 24 19 15 14 16 18 18 16 17 20 23 25 28 28 23 22 23 22 21 17
169 176 134 91 93 67 122 143 153 139 156 196 205 219 116 151 145 147 146 141 139 140 146 170 144 80 108 124 133 133 128 124 117 112 109 107 103 99 92 86 85 79 71 64 63 60 59 54 48 45 43 43 41 36 31 27 27 25 27 33 34 34 33 27 26 25 28 26 22 17 11 9 15 19 21 19 14 14 17 21 23 24 24 22 23 21 22
181 165 116 91 93 94 116 137 138 134 175 197 146 84 128 136 140 143 142 134 137 137 122 105 100 105 112 122 126 130 130 125 120 119 115 109 102 99 97 102 97 89 80 77 74 68 60 56 54 47 41 45 43 41 37 33 29 23 20 27 35 36 35 35 28 29 28 24 25 22 17 14 13 13 13 19 21 21 15 17 21 22 22 25 24 21 18
139 158 125 152 153 169 201 146 133 13 267 84 113 125 125 134 134 138 135 135 134 124 114 111 114 117 120 124 126 125 125 124 122 118 114 111 113 115 113 101 95 97 89 80 74 69 66 60 55 53 49 43 41 42 45 40 34 28 22 20 27 33 32 34 35 30 31 26 22 25 25 24 23 19 15 13 15 19 22 22 22 22 22 21 20 20 18
238 162 134 72 67 133 160 186 127 85 78 123 128 129 127 130 133 133 134 128 130 131 127 125 120 120 121 121 124 124 123 120 116 115 113 113 109 104 98 94 90 85 87 85 78 69 58 51 48 47 45 48 43 41 42 44 45 35 32 29 26 28 29 27 26 26 28 29 23 22 24 24 29 29 22 18 20 14 16 24 22 24 24 23 20 20 19
30 60 101 93 79 95 93 86 98 106 114 123 127 123 126 130 129 130 127 129 130 129 126 123 124 122 123 124 126 124 123 123 121 119 118 114 113 112 108 104 102 95 86 83 80 77 70 63 53 46 44 45 44 44 44 41 42 41 37 34 30 29 28 29 28 27 34 39 31 21 20 21 24 25 27 20 18 17 19 22 24 22 23 24 25 22 22
88 71 80 106 104 94 93 96 106 115 119 118 123 125 125 126 125 130 131 133 130 129 129 126 125 125 128 126 125 124 124 123 120 119 120 121 119 111 109 106 100 99 93 83 77 69 65 58 56 50 46 45 45 42 41 41 41 39 38 40 33 30 32 30 26 28 28 30 37 38 33 27 24 28 34 28 22 18 16 18 23 23 19 18 20 23 23
140 77 99 100 107 115 105 105 108 112 116 119 121 123 123 125 126 123 127 129 131 132 132 128 127 128 129 126 125 125 124 124 126 128 127 122 117 112 104 104 104 92 89 82 76 70 69 61 55 52 48 47 45 43 42 39 44 43 38 38 42 37 33 30 32 32 36 26 28 34 35 37 36 34 37 39 32 25 20 17 20 23 23 15 15 17 18
61 124 120 109 105 110 115 116 118 119 118 115 114 115 120 120 122 124 126 129 128 132 128 128 128 128 130 128 127 128 130 131 131 127 122 120 118 109 106 106 97 90 85 83 81 77 72 65 57 55 52 48 44 45 44 44 46 47 49 40 38 40 36 35 31 29 32 30 32 51 46 37 31 32 38 48 48 38 30 26 20 21 23 17 11 16 17
96 105 116 122 108 103 112 116 112 114 119 118 115 117 120 121 122 125 125 127 129 129 128 129 130 130 134 133 134 132 134 132 127 124 121 117 115 116 108 94 95 101 102 96 90 81 75 68 69 62 57 51 45 43 39 43 47 47 44 49 49 44 39 34 36 29 30 28 31 45 77 62 56 39 24 30 53 63 49 49 53 40 29 24 13 6 20
148 159 153 143 129 131 119 120 121 119 118 123 122 122 123 125 127 128 128 126 126 126 129 133 133 131 132 132 131 129 129 127 124 124 125 125 121 119 117 116 114 113 110 105 94 84 81 67 60 62 59 56 51 46 42 38 39 40 43 45 45 47 46 39 24 29 25 27 29 27 45 96 103 72 42 35 19 48 86 62 64 73 69 57 30 15 16
164 146 157 152 115 123 125 122 125 127 127 129 129 129 128 129 129 130 130 130 130 132 135 134 131 130 132 132 132 130 128 128 132 130 130 131 127 118 124 129 116 91 81 82 99 100 87 70 53 54 63 55 51 51 48 48 44 39 27 31 39 36 39 47 36 23 31 28 24 24 25 20 37 104 117 62 48 33 33 64 76 81 86 89 68 50 33
111 140 143 122 131 132 132 130 129 130 133 131 128 128 129 130 130 132 132 133 133 132 132 133 134 134 133 134 131 128 130 132 133 132 127 127 132 123 106 95 101 108 107 95 73 66 69 79 66 40 31 51 60 52 50 51 42 52 51 29 24 30 31 31 41 29 30 33 28 29 24 30 22 9 29 102 115 37 1 351 34 74 86 83 78 73 69
131 128 121 125 122 125 127 130 130 132 133 132 129 130 132 132 132 133 131 130 130 133 135 134 132 132 130 130 131 132 133 131 130 128 133 114 94 104 123 129 122 116 109 98 90 81 72 73 76 62 56 24 29 52 60 49 49 41 47 46 34 30 20 21 31 36 33 27 22 26 26 25 25 25 18 8 18 84 171 318 333 100 95 90 80 73 79
120 112 118 121 121 122 127 127 125 127 130 131 130 129 130 129 129 131 129 129 130 132 130 130 132 134 136 136 136 135 132 131 127 128 118 128 136 126 116 116 115 112 101 87 79 79 83 76 66 63 55 58 35 11 26 54 44 45 44 72 70 41 28 7 28 27 26 25 23 25 27 21 19 23 19 16 13 6 18 66 163 162 175 91 107 110 84
114 123 127 123 123 127 133 132 131 134 132 133 131 128 128 128 129 126 127 127 129 131 133 134 133 135 135 133 132 134 129 137 162 142 128 123 117 113 109 101 94 91 99 100 91 82 84 74 71 61 57 44 37 31 13 18 47 40 55 43 68 140 157 0 23 23 29 30 26 20 15 21 28 24 24 22 11 12 19 14 7 4 18 76 70 9 53
131 136 140 133 134 134 134 132 132 133 133 131 130 128 130 129 129 129 129 132 134 135 136 138 138 138 136 140 138 133 152 169 133 116 129 117 112 111 111 114 116 111 103 105 95 89 76 74 66 63 48 39 43 26 49 1 20 44 30 34 35 20 26 35 27 31 26 29 25 22 12 22 22 24 23 23 11 13 21 20 9 8 15 14 19 141 149
136 137 129 121 124 128 130 130 130 129 128 129 130 132 133 134 134 136 137 138 140 139 139 142 145 143 134 132 141 151 140 118 125 134 122 121 121 119 120 117 109 110 104 97 93 85 75 67 68 63 49 33 38 46 48 48 354 64 44 44 33 21 14 6 13 22 27 29 31 9 357 22 25 27 24 25 20 11 18 19 13 12 11 22 7 18 1
134 130 124 127 129 132 131 132 129 130 135 136 138 138 142 140 140 140 139 139 143 145 141 132 127 128 142 148 148 135 136 137 131 130 128 127 128 134 133 122 119 118 120 105 91 81 72 65 54 49 48 33 43 43 53 54 358 26 46 69 59 46 27 358 336 8 16 30 13 15 21 14 30 26 20 23 23 16 18 19 20 12 16 20 16 15 11
131 130 129 132 132 134 131 131 134 136 138 143 144 145 146 144 139 138 139 141 137 130 139 144 146 147 146 140 135 134 131 133 132 131 130 126 123 105 104 156 132 107 96 89 80 76 72 63 54 48 48 44 50 46 36 358 30 51 36 94 112 91 54 345 294 341 24 13 23 12 18 7 25 29 28 13 21 19 16 22 15 17 18 22 21 17 16
128 130 131 133 135 135 135 139 142 145 147 147 147 146 145 142 144 144 146 141 139 148 146 143 144 142 135 130 131 134 136 131 130 125 122 120 107 86 353 40 94 99 96 86 76 75 60 63 55 50 46 47 46 46 34 358 17 28 8 28 39 62 93 248 347 2 11 10 26 6 14 1 14 18 26 17 16 11 17 17 18 13 13 20 30 28 22
133 134 135 139 140 142 142 146 147 146 147 145 144 142 140 143 142 142 142 141 146 143 143 142 137 129 131 136 137 129 125 135 128 119 106 91 60 353 321 308 114 99 98 89 94 80 63 61 55 50 45 46 35 35 24 17 354 32 21 33 9 61 5 222 163 335 13 7 28 3 353 11 357 18 14 17 4 15 13 15 20 9 18 16 32 46 28
141 144 146 150 151 151 150 150 148 143 143 141 143 145 143 143 142 140 139 143 141 143 140 134 133 135 125 99 87 91 118 127 121 103 88 98 57 310 275 146 122 116 108 135 115 73 71 61 54 56 52 48 44 26 14 9 9 46 353 29 332 12 74 353 18 76 360 5 358 23 353 24 348 11 360 4 0 11 11 4 18 14 11 16 23 45 146
143 145 149 152 149 146 142 139 142 145 145 144 146 142 143 142 141 139 139 141 143 137 134 135 124 110 108 107 109 79 66 102 108 124 147 158 165 264 269 153 138 144 149 141 108 103 68 46 33 18 59 55 44 37 12 357 359 32 346 17 15 351 37 31 338 33 356 7 7 348 20 16 352 354 332 352 355 6 3 19 358 18 9 9 19 18 66
149 150 144 144 143 145 145 146 144 143 144 142 141 141 143 141 136 136 145 142 134 136 135 126 122 127 125 119 111 109 121 123 131 140 156 177 246 252 253 204 156 160 153 142 121 112 130 93 31 324 313 48 50 43 20 353 319 23 54 343 18 16 8 16 7 0 6 10 346 355 18 331 264 318 344 347 342 356 352 16 352 9 10 7 10 11 18
150 143 143 144 146 147 144 141 143 143 140 140 141 142 139 138 141 147 144 139 140 137 133 133 139 139 144 143 136 134 141 139 150 161 163 187 214 223 239 131 274 120 170 172 143 140 136 94 204 267 275 228 77 43 30 337 329 330 336 22 21 21 5 16 28 5 10 18 1 340 356 0 354 360 349 341 358 344 358 351 4 6 358 1 360 7 17
142 145 145 145 146 144 143 141 140 137 137 137 138 137 139 144 147 150 144 141 139 138 140 144 146 147 150 148 147 152 149 124 117 126 128 200 229 204 171 179 182 206 223 110 133 156 131 123 202 254 256 77 71 72 33 318 309 298 353 35 8 27 19 9 26 27 7 23 9 348 360 11 5 360 3 356 9 357 355 355 351 345 347 350 354 3 8
149 145 146 147 146 144 141 141 141 139 142 141 140 142 145 144 144 143 143 144 141 144 152 149 149 152 158 161 163 165 167 171 165 166 182 207 210 222 208 211 247 45 64 87 132 131 121 151 222 244 258 50 141 116 109 256 293 300 19 33 29 17 17 12 18 24 28 11 29 352 2 20 8 357 6 352 4 360 18 8 346 338 335 338 339 6 356
149 151 149 150 147 146 144 145 143 145 145 144 144 144 144 147 148 146 147 147 147 158 160 153 155 158 163 166 168 170 172 174 174 181 186 196 199 215 222 230 239 130 87 54 271 137 124 180 241 254 159 142 315 107 97 337 302 295 40 9 24 14 34 1 2 18 12 12 14 358 10 5 24 358 9 341 3 351 6 359 8 357 344 343 335 339 345
153 151 151 150 148 150 150 148 148 150 149 149 147 144 150 154 150 150 152 151 154 168 165 163 164 165 171 172 172 170 168 173 177 183 184 189 198 206 223 225 168 151 151 179 301 118 146 197 245 262 151 193 116 11 329 177 251 265 57 15 5 359 5 21 348 3 5 7 356 16 17 348 2 21 1 351 360 354 6 358 351 355 4 360 357 335 335
155 153 154 151 152 152 152 149 150 151 152 149 147 150 157 156 157 153 153 154 162 175 168 172 170 171 174 175 172 167 170 173 184 185 190 197 203 196 221 185 145 133 105 114 131 149 161 199 231 266 303 120 120 107 322 299 291 353 318 33 359 341 341 352 342 349 352 1 344 354 29 6 341 13 355 359 356 354 6 355 351 1 355 359 5 357 345
158 160 157 155 157 155 156 155 158 155 154 152 153 161 158 163 160 157 156 161 168 174 173 170 150 175 178 180 173 169 171 175 186 187 195 204 235 279 300 73 122 121 143 177 196 199 196 199 210 191 69 32 75 134 228 267 267 308 357 357 152 290 301 6 341 311 357 353 355 323 40 1 331 11 359 5 1 350 10 360 348 350 5 360 353 356 360
161 162 161 159 161 160 160 161 159 157 159 156 161 163 164 164 169 167 164 166 173 179 185 172 173 186 185 185 173 181 175 183 187 194 197 199 202 220 238 274 122 132 150 178 208 223 203 209 91 100 108 112 127 183 260 271 285 245 204 188 314 298 334 342 307 314 5 337 352 335 30 316 14 2 15 6 12 347 22 358 349 344 6 6 358 360 353
165 164 163 163 161 164 169 168 167 167 162 158 164 168 171 172 179 175 174 171 179 178 196 179 177 187 191 185 185 196 190 182 198 184 201 223 214 197 180 185 126 151 163 209 238 231 241 115 112 122 116 142 165 214 258 261 269 331 349 309 281 288 321 277 260 307 320 306 318 325 354 339 346 329 36 2 38 349 21 357 349 338 13 5 357 9 348
165 165 164 165 168 173 173 170 168 172 167 167 169 171 179 180 182 183 180 180 181 183 197 193 182 190 196 192 196 204 213 201 208 207 206 196 283 317 134 187 179 151 153 190 234 239 109 110 120 121 145 157 176 226 243 247 257 272 272 262 258 248 245 267 308 280 290 295 298 345 351 343 331 327 39 346 2 354 26 359 334 357 7 1 349 18 356
167 168 168 172 173 177 172 175 170 179 179 175 178 176 186 190 187 187 186 187 185 185 193 200 196 193 198 203 199 200 210 205 211 234 253 158 109 109 91 71 96 114 151 198 232 234 128 134 124 139 156 179 218 248 256 275 285 289 284 277 291 293 277 272 267 269 276 277 36 313 250 230 255 302 359 334 338 6 9 356 358 2 1 355 341 10 6
170 170 170 176 176 177 181 182 174 191 198 188 188 178 181 193 190 192 187 192 190 188 193 199 202 200 200 203 208 217 214 201 218 207 193 234 220 142 159 197 151 151 172 140 77 76 118 134 136 154 175 180 209 246 252 248 255 255 260 279 290 284 293 315 311 289 277 280 259 270 299 322 344 321 332 340 339 340 21 342 355 9 358 348 359 358 353
171 173 173 182 179 181 186 184 183 195 204 189 192 189 181 189 191 193 189 194 194 192 193 199 199 202 200 204 214 206 227 243 228 234 200 208 224 233 197 124 138 152 184 216 206 167 144 144 154 174 176 206 242 244 253 260 265 278 297 291 286 295 292 276 285 311 320 319 308 297 281 274 282 288 321 327 311 332 349 330 354 15 8 337 343 352 351
178 184 178 183 185 185 187 188 189 196 202 195 194 193 184 188 193 196 194 195 197 200 202 197 203 205 210 205 204 226 215 221 231 232 295 240 202 226 151 146 158 166 199 219 223 176 141 155 160 176 195 218 233 252 271 284 296 274 267 260 258 266 272 43 9 346 295 288 279 278 282 288 287 338 315 284 299 321 311 322 321 125 197 257 333 343 5
183 191 185 186 191 188 190 199 200 196 196 194 197 203 186 191 202 198 198 196 199 199 218 217 209 209 211 213 213 206 221 226 229 223 217 227 229 221 239 171 152 168 186 224 243 218 160 179 186 186 205 228 247 258 257 260 259 279 256 262 260 263 245 201 246 250 237 246 271 282 283 282 278 268 270 289 278 270 287 281 277 291 295 332 353 345 7
182 190 188 188 193 192 196 201 198 196 203 197 194 206 202 192 201 202 199 195 208 200 205 212 219 212 213 214 214 217 212 219 225 204 225 239 237 224 202 130 153 163 186 210 223 247 223 189 175 178 195 223 243 243 158 111 253 262 269 263 261 257 258 274 273 262 254 237 250 257 255 252 262 259 245 247 249 254 257 263 268 264 256 281 66 23 356